This demonstration page uses our WeatherBlox Daily Observations layout. Learn more.

Left ArrowRight Arrow

39.92423, -83.80882

Hourly Observations for September 12, 2020

Temp ( °F °C ) Dew Point ( °F °C ) Humidity (%) Winds ( mph kmh ) Pressure ( in mb ) Visibility ( mi km ) Precip ( " mm )
12:32 am 00:32 Cloudy 64 18 63 17 94 94 E 8 13 30.18 1022 10 16 N/A
12:56 am 00:56 Cloudy 63 17.2 62 16.7 97 97 E 6 9 30.18 1022 10 16 N/A
1:27 am 01:27 Partly Cloudy 61 16 61 16 100 100 E 5 7 30.17 1022 10 16 N/A
1:56 am 01:56 Clear 58 14.4 58 14.4 100 100 E 5 7 30.16 1022 10 16 N/A
2:56 am 02:56 Clear 57 13.9 57 13.9 100 100 ENE 5 7 30.14 1021 8 13 N/A
3:56 am 03:56 Clear with Mist and Fog 57 13.9 57 13.9 100 100 N N/A 30.12 1020 4 6 N/A
4:56 am 04:56 Clear with Mist and Fog 56 13.3 56 13.3 100 100 ENE 6 9 30.10 1019 4 6 N/A
5:56 am 05:56 Clear with Mist and Fog 55 12.8 55 12.8 100 100 E 5 7 30.09 1019 4 6 N/A
6:56 am 06:56 Clear with Mist and Fog 55 12.8 55 12.8 100 100 E 6 9 30.09 1019 5 8 N/A
7:56 am 07:56 Mostly Cloudy with Mist and Fog 57 13.9 57 13.9 100 100 E 5 7 30.09 1019 5 8 N/A
8:56 am 08:56 Mostly Sunny 62 16.7 62 16.7 100 100 E 8 13 30.09 1019 10 16 N/A
9:56 am 09:56 Sunny 68 20 65 18.3 90 90 SSE 7 11 30.08 1019 10 16 N/A
10:56 am 10:56 Sunny 73 22.8 67 19.4 81 81 SSE 9 15 30.07 1018 10 16 N/A
11:56 am 11:56 Sunny 77 25 69 20.6 77 77 VRB 7 11 30.06 1018 10 16 N/A
12:56 pm 12:56 Sunny 82 27.8 71 21.7 69 69 S 9 15 30.04 1017 10 16 N/A
1:56 pm 13:56 Mostly Sunny 84 28.9 71 21.7 65 65 SW 7 11 30.02 1017 10 16 N/A
2:56 pm 14:56 Sunny 86 30 70 21.1 59 59 SW 10 17 29.99 1016 10 16 N/A
3:56 pm 15:56 Mostly Cloudy 86 30 70 21.1 59 59 SW 10 17 29.97 1015 10 16 N/A
4:56 pm 16:56 Mostly Sunny 85 29.4 70 21.1 61 61 S 8 13 29.96 1015 10 16 N/A
5:56 pm 17:56 Partly Cloudy 83 28.3 71 21.7 67 67 SSW 3 6 29.96 1014 10 16 N/A
6:56 pm 18:56 Sunny 80 26.7 72 22.2 76 76 S 3 6 29.97 1015 10 16 N/A
7:56 pm 19:56 Clear 77 25 73 22.8 88 88 S 5 7 29.97 1015 10 16 N/A
8:56 pm 20:56 Clear 76 24.4 74 23.3 94 94 S 5 7 29.98 1015 10 16 N/A
9:56 pm 21:56 Clear 76 24.4 75 23.9 97 97 S 3 6 29.98 1015 10 16 N/A
10:56 pm 22:56 Mostly Clear with Light Rain 75 23.9 75 23.9 100 100 SSE 7 11 29.98 1015 10 16 0.00 0.00
11:56 pm 23:56 Mostly Cloudy 75 23.9 75 23.9 100 100 S 7 11 29.98 1015 10 16 0.00 0.00

Powered by AerisWeather